Location: Newark
(13.6797°N, 8.5297°E)
Time: 15:38:20
(UTC+00:00)

A-11 Canister half - Pass Details

Date: 26 January 2020
Orbit: 1517 x 1683 km, 47.2° (Epoch: 23 February)

Event Time Altitude Azimuth Distance (km) Brightness Sun altitude
Rises 06:44:21 0° 318° (NW) 4,666 11.0 10.7°
Reaches altitude 10° 06:47:21 10° 318° (NW) 3,695 10.5 11.3°
Maximum altitude 06:56:43 89° 231° (SW) 1,562 9.3 13.4°
Drops below altitude 10° 07:06:24 10° 140° (SE) 3,811 12.5 15.6°
Sets 07:09:33 0° 140° (SE) 4,819 12.8 16.3°
